sat.trackr.live / text

‹ back to catalog

STARLINK-4521

NORAD 53391 · 2022-097D

PAYLOAD ACTIVE UNKNOWN

§ Identity

Operator
Country
US
Launch date
2022-08-10
Launch site
AFETR
Launch vehicle
Mass (kg)
RCS (m²)

Purposes: comms

External: N2YO · Heavens-Above · Gunter

§ Orbital elements

Epoch: 2026-05-25T03:40:56.225856Z

Period
95.44 min
Inclination
53.2125°
Eccentricity
0.0000977
Mean motion
15.08849717 rev/d
Perigee alt
539.0 km
Apogee alt
540.4 km
Semi-major
6,917.9 km
B*
-1.1746e-4
RAAN
140.8615°
Arg perigee
92.7725°
Mean anomaly
267.3378°
Rev number
21,021

§ Raw data

STARLINK-45211 53391U 22097D   26145.15342854 -.00002157  00000+0 -11746-3 0  99992 53391  53.2125 140.8615 0000977  92.7725 267.3378 15.08849717210213

JSON: /api/v1/satellites/53391 · /tle

For live sub-satellite position, see the globe view (requires WebGL).

§ Visibility from observer

Set your observer location to see the next 7 days of passes ≥ 10°. The values pass through the URL so the page stays shareable.

No JS? Fill the form by hand. The geolocation button needs JavaScript.